Tracking 35237 objects as of 6-Sep-2026
HD Live streaming from Space Station
objects crossing your sky now

TIANQI 39

Track TIANQI 39 now!
10-day predictions


NORAD ID: 67478
Int'l Code: 2026-010C
Launch date: January 15, 2026
Source: People's Republic of China (PRC)
Launch site: Yellow Sea Launch Area, China (YSLA)
Your satellite tracking list
Your tracking list is empty




NASA's NSSDC Master Catalog

Two Line Element Set (TLE):
1 67478U 26010C   26248.96973127 -.00000011  00000-0  80923-4 0  9996
2 67478  44.9792  78.2118 0013580  12.4543 347.6623 13.99233591 32766
Source of the keplerian elements: AFSPC